Regional Weather Roundup
Issued by NWS Sterling, VA

Home | Current Version | Previous Version | Graphics & Text | Print | Product List | Glossary On
Versions: 1 2 3 4 5 6 7 8 9 10 11 12 13 14 15 16 17 18 19 20 21 22 23 24 25 26 27
000
ASUS41 KLWX 231011
RWRLWX

REGIONAL WEATHER ROUNDUP
NATIONAL WEATHER SERVICE BALTIMORE MD/WASHINGTON DC
500 AM EST FRI FEB 23 2018

Note: "FAIR" indicates few or no clouds below 12,000 feet
with no significant weather and/or obstructions to visibility.
 TC=TEMPERATURE CELSIUS

 * =Non NWS site. Station does not report precipitation (e.g. rain,
    snow, etc.), thunder, or fog.

DCZ001-MDZ009-015-VAZ040>042-051-053>054-231100-
WASHINGTON METRO

CITY           SKY/WX    TMP DP  RH WIND       PRES   REMARKS
WASHINGTON NAT DRIZZLE   42  40  92 E6        30.58F FOG
DULLES         DRIZZLE   39  39 100 E5        30.57F
ANDREWS AFB    CLOUDY    39  37  93 E6        30.56F WCI  35
FT BELVOIR     CLOUDY    41  37  87 CALM      30.57F
QUANTICO       DRIZZLE   42  41  96 CALM      30.60S
COLLEGE PARK*  CLOUDY    39  37  93 CALM      30.58F
LEESBURG*      DRIZZLE   37  37 100 SE3       30.58S
MANASSAS*      LGT RAIN  40  39  97 E3        30.58S FOG
GAITHERSBURG*  LGT RAIN  39  38  96 E6        30.56F FOG     WCI  35

$$

MDZ006>007-011-014-231100-
BALTIMORE METRO

CITY           SKY/WX    TMP DP  RH WIND       PRES   REMARKS
BWI AIRPORT    CLOUDY    39  38  96 E9        30.57F WCI  33
MD SCIENCE CTR   N/A     42  39  89 MISG      30.59F
MARTIN STATE   RAIN      41  41 100 CALM      30.61S
ANNAPOLIS      CLOUDY    42  40  92 NE6       30.58F FOG
FORT MEADE*    CLOUDY    37  36  93 E6        30.61R WCI  33

$$

MDZ012-015-019>023-231100-
MARYLAND EASTERN SHORE

CITY           SKY/WX    TMP DP  RH WIND       PRES   REMARKS
OCEAN CITY     CLOUDY    42  42 100 NE10      30.57R FOG
SALISBURY      CLOUDY    42  41  96 NE10      30.55F FOG
BAY BRIDGE AP* CLOUDY    39  37  93 NE5       30.58F FOG
CAMBRIDGE*     CLOUDY    41  39  93 NE6G13    30.57F FOG
EASTON*        CLOUDY    41  38  92 E7        30.61F FOG

$$

MDZ017>025-231100-
SOUTHERN MARYLAND

CITY           SKY/WX    TMP DP  RH WIND       PRES   REMARKS
PATUXENT RIVER CLOUDY    41  41 100 N7        30.57R FOG
ST INIGOES     CLOUDY    42  31  64 NE5       30.56  HAZE
LEONARDTOWN*   CLOUDY    39  37  93 CALM      30.58S

$$

MDZ003>005-231100-
NORTH CENTRAL MARYLAND

CITY           SKY/WX    TMP DP  RH WIND       PRES   REMARKS
FREDERICK*     CLOUDY    41  41 100 CALM      30.61F
HAGERSTOWN APT LGT RAIN  40  38  93 SE3       30.54S
WESTMINSTER*   HVY RAIN  39  39 100 CALM      30.56R

$$

MDZ501>502-231100-
WESTERN MARYLAND

CITY           SKY/WX    TMP DP  RH WIND       PRES   REMARKS
OAKLAND*       CLOUDY    32  32 100 SE15G21   30.39S VSB 3/4 WCI  22
CUMBERLAND*    CLOUDY    41  41 100 CALM      30.55F

$$

VAZ025>031-231100-
SHENANDOAH VALLEY

CITY           SKY/WX    TMP DP  RH WIND       PRES   REMARKS
WINCHESTER*    CLOUDY    37  37 100 E3        30.55S FOG
FRONT ROYAL*   CLOUDY    39  39 100 E6        30.52F WCI  35
LURAY*         LGT RAIN  41  41 100 N3        30.53S
NEW MARKET*    CLOUDY    40  38  96 CALM      30.52R
STAUNTON*      DRIZZLE   40  40  99 CALM      30.53S
WAYNESBORO*    CLOUDY    40  40  99 SE6       30.50S

$$

WVZ021-048>050-054>055-231100-
EASTERN WEST VIRGINIA PANHANDLE

CITY           SKY/WX    TMP DP  RH WIND       PRES   REMARKS
MARTINSBURG    CLOUDY    39  39 100 SE3       30.54F FOG
PETERSBURG*    CLOUDY    40  39  97 CALM      30.50S FOG

$$

VAZ036>039-050-231100-
CENTRAL FOOTHILLS

CITY           SKY/WX    TMP DP  RH WIND       PRES   REMARKS
CHARLOTTESVILL CLOUDY    43  41  93 NE7       30.54S FOG
CULPEPER*      CLOUDY    41  39  93 CALM      30.58S FOG
ORANGE*        CLOUDY    39  39 100 CALM      30.56R FOG
GORDONSVILLE*  CLOUDY    41  41 100 NE8       30.54S FOG
WARRENTON*     CLOUDY    41  38  89 E3        30.57R FOG

$$

VAZ055>057-231100-
NORTH AND CENTRAL PIEDMONT

CITY           SKY/WX    TMP DP  RH WIND       PRES   REMARKS
FREDERICKSBRG* CLOUDY    41  41 100 E5        30.57S
STAFFORD*      CLOUDY    41  41 100 NE5       30.61S FOG

$$

NCZ024-NYZ072-PAZ021-071-VAZ022-071-231100-
OTHER REGIONAL OBSERVATIONS

CITY           SKY/WX    TMP DP  RH WIND       PRES   REMARKS
NEW YORK CITY  CLOUDY    36  32  85 E8        30.67S WCI  30
PHILADELPHIA   CLOUDY    38  34  85 E9        30.63R WCI  31
PITTSBURGH     DRIZZLE   42  42 100 E5        30.33S FOG
ROANOKE        CLOUDY    47  46  97 SE9       30.51R FOG
RICHMOND       DRIZZLE   42  41  96 E7        30.55R
RALEIGH        CLOUDY    58  55  90 NE9       30.46R

$$

ANZ530>537-231100-
MARINE OBSERVATIONS

STATION/POSITION TIME  TEMP    WIND        PRES
                       AIR SEA DIR/SP/G
                 (UTC) (F)     (DEG/KT/KT) (MB)
THOMAS PT LIGHT  1000   39 42   60/  7/  8   N/A
BALT KEY BRIDGE  0948   40     100/  7/  8 1036.0F
COVE POINT       0948   40      30/  7/  9 1036.1F
LEWISETTA        0948   42 49   50/  6/  9 1034.9F
SOLOMONS ISLAND  0948   40 43   30/  5/  7 1034.7F
PINEY POINT      0936           50/  3/  5   N/A

$$





USA.gov is the U.S. government's official web portal to all federal, state and local government web resources and services.